Location: Holcomb Observatory and Planetarium
(39.8415°N, 86.1714°W)
Time: 03:01:49
(UTC-04:00)

ISS - Visible Passes

Search period start: 25 October 2014 00:00
Search period end: 03 November 2014 23:00
Orbit: 412 x 416 km, 51.6° (Epoch: 25 October)

Date Brightness Start Highest point End Pass type
(mag) Time Alt. Az. Time Alt. Az. Time Alt. Az.
25 Oct -2.7 20:26:11 10° WNW 20:29:27 53° SW 20:30:14 41° S visible
26 Oct -3.3 19:36:55 10° NW 19:40:16 82° NE 19:43:35 10° SE visible
26 Oct 0.0 21:16:06 10° WSW 21:16:28 10° SW 21:16:36 10° SW visible
27 Oct -0.6 20:25:00 10° W 20:27:25 19° SW 20:29:48 10° S visible
28 Oct -1.5 19:35:13 10° WNW 19:38:15 33° SW 19:41:17 10° SSE visible
30 Oct 0.0 19:34:31 10° WSW 19:35:53 12° SW 19:37:15 10° SSW visible
